Regional Weather Roundup
Issued by NWS Mt. Holly, NJ

Current Version | Previous Version | Text Only | Print | Product List | Glossary Off
Versions: 1 2 3 4 5 6 7 8 9 10 11 12 13 14 15 16 17 18 19 20 21 22 23 24 25 26 27 28 29 30 31 32 33 34 35 36 37 38 39 40 41 42 43 44 45 46 47 48 49 50

000
ASUS41 KPHI 280512
RWRPHI

REGIONAL WEATHER ROUNDUP
NATIONAL WEATHER SERVICE MOUNT HOLLY NJ
100 AM EDT SAT MAY 28 2016

NOTE:  "FAIR" INDICATES FEW OR NO CLOUDS BELOW 12,000 FEET WITH NO
SIGNIFICANT WEATHER AND/OR OBSTRUCTIONS TO VISIBILITY.

 * = STATION DOES NOT REPORT PRECIPITATION (E.G. RAIN, SNOW, ETC.)
        OR FOG.

NJZ015>026-280600-
SOUTHERN NEW JERSEY

CITY           SKY/WX    TMP DP  RH WIND       PRES   REMARKS
POMONA         CLEAR     70  58  65 S12       30.12S
WILDWOOD*      CLEAR    N/A N/A N/A S12       30.13S
MILLVILLE      CLEAR     69  58  67 S5        30.12S
WRIGHTSTOWN    CLEAR     69  58  68 S8        30.08S
MOUNT HOLLY    CLEAR     71  57  61 VRB3      30.10S
TRENTON        CLEAR     73  63  70 SW7       30.09R

$$
NJZ001>014-280600-
NORTHERN NEW JERSEY

CITY           SKY/WX    TMP DP  RH WIND       PRES   REMARKS
SUSSEX         CLEAR     68  66  93 CALM      30.07R FOG
ANDOVER*         N/A     74  67  78 CALM      30.08R
MORRISTOWN     CLEAR     73  63  68 CALM      30.07R
NEWARK         PTCLDY    75  64  68 S13       30.07R
TETERBORO      CLEAR     76  62  62 S5        30.06R
CALDWELL       CLEAR     78  65  63 CALM      30.07R
SOMERVILLE     CLEAR     69  66  90 CALM      30.06R
ALLAIRE*       CLEAR     71  55  56 S12       30.11R
TOMS RIVER*    CLEAR     70  52  52 S8        30.11S

$$
PAZ043-044-047-054-055-060>062-066>071-280600-
EASTERN PENNSYLVANIA

CITY           SKY/WX    TMP DP  RH WIND       PRES   REMARKS
PHILADELPHIA   PTCLDY    73  60  63 S8        30.10S
NORTH PHILA    CLEAR     75  62  64 SW9       30.11R
BLUE BELL*     PTCLDY    73  63  68 SW5       30.09S
DOYLESTOWN     CLEAR     73  66  78 S6        30.08S
QUAKERTOWN*    CLEAR     73  68  83 SW3       30.10S
PERKASIE*      FAIR      73  68  83 SW5       30.10S
POTTSTOWN      PTCLDY    74  67  78 SW3       30.10S
LANCASTER      CLEAR     72  65  78 SW6       30.09R
COATESVILLE    CLEAR     72  64  78 VRB3      30.12S
READING        PTCLDY    74  65  73 S9        30.07S
ALLENTOWN      PTCLDY    75  66  73 SW6       30.07S
MOUNT POCONO   PTCLDY    69  65  86 W8        30.13R
HAZLETON       MOCLDY    72  63  73 CALM      30.15S
LEHIGHTON      FAIR      64  64 100 CALM      30.09R FOG
WILKES BARRE   CLOUDY    70  65  84 CALM      30.08R

$$
DEZALL-MDZ008-012-015-019-020-280600-
DELAWARE AND EASTERN MARYLAND

CITY           SKY/WX    TMP DP  RH WIND       PRES   REMARKS
WILMINGTON     CLEAR     73  60  63 S8        30.10S
DOVER          PTCLDY    71  62  72 S9        30.10S
GEORGETOWN     CLEAR     70  59  68 S9        30.14S
EASTON         CLEAR     74  67  80 SW9       30.15S
PATUXENT       CLEAR     72  61  68 S10       30.11S
OCEAN CITY     CLEAR     70  62  76 SW13      30.15S
WALLOPS ISLAND FAIR      68  61  78 S14       30.16S
CAMBRIDGE      CLEAR     70  63  78 S3        30.12S
SALISBURY      CLEAR     68  60  75 S7        30.14S

$$
PAZ001-021-NYZ056-072-MDZ011-DCZ001-280600-
OTHER NEARBY LOCATIONS

CITY           SKY/WX    TMP DP  RH WIND       PRES   REMARKS
HARRISBURG     MOCLDY    71  66  84 CALM      30.07S
STATE COLLEGE  CLOUDY    67  64  90 SW5       30.10S
WILLIAMSPORT   PTCLDY    69  65  86 CALM      30.06R
BINGHAMTON     PTCLDY    71  63  75 SW5       30.08S
NEW YORK CITY  CLEAR     75  63  66 VRB6      30.10R
BALTIMORE      MOCLDY    71  64  78 CALM      30.09S
WASHINGTON DC  NOT AVBL

$$



USA.gov is the U.S. government's official web portal to all federal, state and local government web resources and services.